CZ-4 DEB, 26184

Orbit data source: Space-Track

CZ-4 DEB, 26184 is space debris in SSO originally from a launch on Thu, 14 Oct 1999 UTC launched from the Taiyaun Space Center, China (TSC). Debris objects in space refer to the collection of defunct objects orbiting the Earth. Examples of debris include non-operational satellites, rocket bodies, and fragments generated from explosions, collisions, or faulty payload assembly.

Loading next visibility...
Identifier
26184, 1999-057BW
Orbit
SSO
Country
Flag of CNCN / PRC
Related business
Manufacturer
Unknown
Mission
Spacecraft
Bus & Motor
Unknown
Mass
Unknown
Launch date (UTC)
1999-10-14 (26 years ago)
Launch vehicle
Unknown
Launch site
Taiyaun Space Center, China (TSC)
Object type
Payload
Rocket body
Debris
Shape & HBR
Unknown shape, 0.2 m
Radar Cross Section
Small (<0.1 m²)

Expand to show TLE details & history
Last TLE update: 12 hours ago

TLE from 12 hours ago
0 CZ-4 DEB
1 26184U 99057BW  26036.67053026  .00000733  00000-0  24440-3 0  9997
2 26184  98.7516  89.0640 0104009 330.9311  28.6108 14.37725560354748
Epoch: 2026-02-05T16:05Z
TLE epoch observation values (Epoch: 2026-02-05T16:05:33.814Z)
Latitude
-0.00008°
Longitude
71.8537°
Altitude
703.895 km
Speed
7.538 km/s
True Right ascension
05h 56m 15s
True Declination
0° 00' 00"
Sunlit
Object was in full shadow at epoch
Visualization orbit readout
Latitude
Unknown
Longitude
Unknown
Altitude
Unknown
Speed
Unknown
Apparent Right ascension
Unknown
Apparent Declination
Unknown
Sunlit
N/A
Visualization observer readout
Local Sidereal Time
06:09:25
Azimuth
Unknown
Elevation
Unknown
Doppler factor
Unknown
Orbital elements
Apogee altitude
837.436 km
Perigee altitude
688.884 km
Semi-major axis
7,141.297 km
Eccentricity
0.0104
Inclination
98.7516°
RAAN
89.064°
Arg. of periapsis
330.9311°
True anomaly
29.18811°
Mean anomaly
28.6108°
Eccentric anomaly
28.89879°
Mean motion
3.59648 °/min
Orbital period
100.1 mins
BSTAR
0.0002444
Loading maneuver chart data...
Computing Atmospheric mass density...
Loading historical data...
Loading historical data...
Loading historical data...
Loading historical data...
Loading historical data...
Loading historical data...
Loading historical data...

Documentation

Showing up to 5 results
|